Location: Unspecified
(0.0000°N, 0.0000°E)
Time: 04:40:47
(UTC+00:00)

XW-2F - Pass Details

Date: 14 December 2017
Orbit: 506 x 527 km, 97.5° (Epoch: 26 April)

Event Time Altitude Azimuth Distance (km) Brightness Sun altitude
Rises 18:32:38 0° 199° (SSW) 2,614 ? -8.7°
Reaches altitude 10° 18:35:25 10° 222° (SW) 1,729 ? -9.3°
Maximum altitude 18:37:38 15° 259° (WSW) 1,429 ? -9.8°
Drops below altitude 10° 18:39:51 10° 295° (WNW) 1,730 ? -10.3°
Sets 18:42:39 0° 319° (NW) 2,618 ? -11.0°
